| time (UTC) | temp F | wind direction | speed MPH | gust MPH | rain 1hr in | rain 24hr in | rain mn in | humidity % | barometer mb |
| 20260504204502 | 73 | 253 | 6.0 | 10.0 | 0.00 | 0.00 | 0.00 | 30 | 1010.0 |
| 20260504203002 | 73 | 278 | 4.0 | 11.0 | 0.00 | 0.00 | 0.00 | 31 | 1009.8 |
| 20260504201503 | 73 | 210 | 5.0 | 10.0 | 0.00 | 0.00 | 0.00 | 31 | 1010.0 |
| 20260504200002 | 73 | 155 | 3.0 | 13.0 | 0.00 | 0.00 | 0.00 | 31 | 1010.0 |
| 20260504194502 | 72 | 282 | 5.0 | 13.0 | 0.00 | 0.00 | 0.00 | 31 | 1010.2 |
| 20260504193002 | 72 | 193 | 6.0 | 14.0 | 0.00 | 0.00 | 0.00 | 30 | 1010.5 |
| 20260504191502 | 71 | 201 | 5.0 | 17.0 | 0.00 | 0.00 | 0.00 | 31 | 1010.8 |
| 20260504190002 | 71 | 202 | 8.0 | 16.0 | 0.00 | 0.00 | 0.00 | 31 | 1011.2 |
| 20260504184503 | 71 | 250 | 5.0 | 10.0 | 0.00 | 0.00 | 0.00 | 34 | 1011.3 |
| 20260504183007 | 70 | 238 | 6.0 | 13.0 | 0.00 | 0.00 | 0.00 | 34 | 1011.6 |
| 20260504181503 | 70 | 199 | 4.0 | 16.0 | 0.00 | 0.00 | 0.00 | 34 | 1011.8 |
| 20260504180003 | 70 | 224 | 3.0 | 13.0 | 0.00 | 0.00 | 0.00 | 35 | 1011.8 |
| 20260504174507 | 70 | 266 | 4.0 | 14.0 | 0.00 | 0.00 | 0.00 | 35 | 1012.1 |
| 20260504173003 | 69 | 266 | 6.0 | 15.0 | 0.00 | 0.00 | 0.00 | 33 | 1012.3 |
| 20260504171502 | 69 | 306 | 5.0 | 15.0 | 0.00 | 0.00 | 0.00 | 35 | 1012.5 |
| 20260504081510 | 44 | 243 | 0.0 | 5.0 | 0.00 | 0.00 | 0.00 | 65 | 1015.0 |
| 20260504050018 | 46 | 292 | 0.0 | 3.0 | 0.00 | 0.00 | 0.00 | 57 | 1014.4 |
| 20260504044524 | 46 | 273 | 1.0 | 3.0 | 0.00 | 0.00 | 0.00 | 57 | 1014.4 |
| 20260504043006 | 46 | 231 | 0.0 | 3.0 | 0.00 | 0.00 | 0.00 | 58 | 1014.2 |
| 20260504041534 | 45 | 326 | 0.0 | 0.0 | 0.00 | 0.00 | 0.00 | 59 | 1014.2 |
| 20260504040019 | 45 | 302 | 0.0 | 0.0 | 0.00 | 0.00 | 0.00 | 59 | 1014.0 |
| 20260504034509 | 45 | 259 | 0.0 | 0.0 | 0.00 | 0.00 | 0.00 | 59 | 1013.8 |
| 20260504033006 | 46 | 263 | 0.0 | 1.0 | 0.00 | 0.00 | 0.00 | 56 | 1013.7 |
| 20260504031504 | 46 | 205 | 0.0 | 2.0 | 0.00 | 0.00 | 0.00 | 55 | 1013.8 |
| 20260504030004 | 47 | 262 | 0.0 | 2.0 | 0.00 | 0.00 | 0.00 | 53 | 1013.7 |
| 20260504024504 | 48 | 229 | 0.0 | 3.0 | 0.00 | 0.00 | 0.00 | 52 | 1013.7 |
| 20260504023015 | 48 | 226 | 1.0 | 4.0 | 0.00 | 0.00 | 0.00 | 51 | 1013.7 |
| 20260504021515 | 47 | 296 | 0.0 | 1.0 | 0.00 | 0.00 | 0.00 | 53 | 1013.6 |
| 20260504020011 | 46 | 276 | 0.0 | 1.0 | 0.00 | 0.00 | 0.00 | 55 | 1013.6 |
| 20260504014506 | 45 | 219 | 0.0 | 0.0 | 0.00 | 0.00 | 0.00 | 59 | 1013.5 |
| 20260504013009 | 43 | 219 | 0.0 | 0.0 | 0.00 | 0.00 | 0.00 | 65 | 1013.5 |
| 20260504011505 | 44 | 219 | 0.0 | 0.0 | 0.00 | 0.00 | 0.00 | 62 | 1013.3 |
| 20260504010022 | 45 | 219 | 0.0 | 0.0 | 0.00 | 0.00 | 0.00 | 58 | 1013.0 |
| 20260504004521 | 47 | 219 | 0.0 | 0.0 | 0.00 | 0.00 | 0.00 | 53 | 1012.9 |
| 20260504003018 | 49 | 219 | 0.0 | 0.0 | 0.00 | 0.00 | 0.00 | 48 | 1012.7 |
| 20260504001522 | 52 | 219 | 0.0 | 0.0 | 0.00 | 0.00 | 0.00 | 41 | 1012.4 |
| 20260504000011 | 54 | 219 | 0.0 | 0.0 | 0.00 | 0.00 | 0.00 | 38 | 1012.2 |
| 20260503234510 | 57 | 236 | 0.0 | 4.0 | 0.00 | 0.00 | 0.00 | 33 | 1012.0 |
| 20260503233012 | 58 | 335 | 1.0 | 6.0 | 0.00 | 0.00 | 0.00 | 31 | 1011.9 |
| 20260503231526 | 58 | 281 | 2.0 | 7.0 | 0.00 | 0.00 | 0.00 | 30 | 1011.9 |
| 20260503230036 | 59 | 252 | 4.0 | 15.0 | 0.00 | 0.00 | 0.00 | 29 | 1011.9 |
| 20260503224520 | 59 | 281 | 2.0 | 11.0 | 0.00 | 0.00 | 0.00 | 29 | 1011.7 |
| 20260503223019 | 59 | 257 | 4.0 | 9.0 | 0.00 | 0.00 | 0.00 | 30 | 1011.7 |
| 20260503221515 | 59 | 272 | 8.0 | 19.0 | 0.00 | 0.00 | 0.00 | 29 | 1011.8 |
| 20260503220012 | 59 | 264 | 5.0 | 13.0 | 0.00 | 0.00 | 0.00 | 30 | 1011.8 |
| 20260503214524 | 59 | 262 | 8.0 | 17.0 | 0.00 | 0.00 | 0.00 | 29 | 1011.7 |
| 20260503213008 | 59 | 333 | 8.0 | 14.0 | 0.00 | 0.00 | 0.00 | 29 | 1011.6 |
| 20260503211505 | 59 | 291 | 7.0 | 15.0 | 0.00 | 0.00 | 0.00 | 30 | 1011.6 |
| 20260503210024 | 59 | 257 | 4.0 | 19.0 | 0.00 | 0.00 | 0.00 | 31 | 1011.6 |